Home > Weather > Langley > Past weeks

Flag for Canada Past Weather in Langley, British Columbia, Canada — Yesterday and Last 2 Weeks

Now
62 °F

Cool.


Feels Like: 62 °F
Forecast: 57 / 69 °F
Wind: 1 mph from Southeast

Location: P. Meadows Coastal Station

Current Time: Jun 1, 2016 at 12:34:07 AM

Latest Report: May 31, 2016 at 11:00 PM


Visibility: N/A

Pressure: 29.93 "Hg

Humidity: 67%

Dew Point: 50 °F

Location of LangleyLocation

Past Weather in Langley — Graph

°F

Langley Temperature Yesterday

Maximum temperature yesterday: 76 °F (at 3:00 PM)
Minimum temperature yesterday: 50 °F (at 6:00 AM)
Average temperature yesterday: 63 °F

High & Low Weather Summary for the Past Weeks

 TemperatureHumidityPressure
High76 °F (May 31, 3:00 PM)100% (May 28, 3:00 PM)30.32 "Hg (May 28, 3:00 PM)
Low46 °F (May 30, 5:00 AM)37% (May 31, 4:00 PM)29.73 "Hg (May 21, 4:00 AM)
Average57 °F74%30.02 "Hg
* Reported May 16 11:00 PM — May 31 11:00 PM, Langley, Weather by CustomWeather, © 2016

Note: Actual official high and low records may vary slightly from our data, if they occured in-between our weather recording intervals... More about our weather records

Advertising

Langley Weather History for the Previous 24 Hours

Scroll right to see more
 ConditionsComfort  
Time TempWeatherWind HumidityBarometerVisibility
11:00 PM
Tue, May 31
62 °FCool.1 mph67%29.93 "HgN/A
10:00 PM65 °FMild.3 mph55%29.95 "HgN/A
9:00 PM67 °FMild.2 mph57%29.95 "HgN/A
8:00 PM71 °FMild.2 mph40%29.95 "HgN/A
7:00 PM72 °FMild.6 mph45%29.96 "HgN/A
6:00 PM73 °FMild.3 mph45%29.97 "HgN/A
5:00 PM74 °FMild.5 mph46%29.99 "HgN/A
4:00 PM76 °FMild.7 mph37%30.01 "HgN/A
3:00 PM76 °FMild.5 mph40%30.03 "HgN/A
2:00 PM75 °FMild.2 mph40%30.05 "HgN/A
1:00 PM72 °FMild.6 mph48%30.07 "HgN/A
12:00 PM71 °FMild.5 mph50%30.09 "HgN/A
11:00 AM68 °FMild.5 mph56%30.11 "HgN/A
10:00 AM64 °FMild.3 mph59%30.12 "HgN/A
9:00 AM61 °FCool.1 mph69%30.14 "HgN/A
8:00 AM58 °FCool.1 mph79%30.14 "HgN/A
7:00 AM53 °FCool.1 mph88%30.15 "HgN/A
6:00 AM50 °FCool.1 mph92%30.15 "HgN/A
5:00 AM50 °FCool.1 mph92%30.15 "HgN/A
4:00 AM52 °FCool.No wind92%30.16 "HgN/A
3:00 AM51 °FCool.No wind91%30.17 "HgN/A
2:00 AM52 °FCool.No wind89%30.18 "HgN/A
1:00 AM53 °FCool.No wind87%30.18 "HgN/A
12:00 AM56 °FCool.No wind79%30.19 "HgN/A
Weather by CustomWeather, © 2016

See weather overviewHow to use our weather pages